Abbotsford, British Columbia

7:19 PM PDT on October 17, 2017 (GMT -0700)
Abbotsford

Weather History for CYXX - May, 2013

Change the Weather History Date:

Saturday, May 11, 2013

  Actual Average Record
Temperature  
Mean Temperature 64 °F -  
Max Temperature 77 °F 65 °F 86 °F (1997)
Min Temperature 52 °F 46 °F 35 °F (2012)
Growing Degree Days 14 (Base 50)    
Moisture  
Dew Point 54 °F    
Average Humidity 72    
Maximum Humidity 94    
Minimum Humidity 44    
Precipitation  
Precipitation 0.00 in 0.11 in - ()
Sea Level Pressure  
Sea Level Pressure 30.10 in    
Wind  
Wind Speed 3 mph ()    
Max Wind Speed 10 mph    
Max Gust Speed -    
Visibility 13.7 miles    
Events Rain    
Averages and records for this station are not official NWS values.
T = Trace of Precipitation, MM = Missing Value Source: Averaged Metar Reports

Daily Weather History Graph

Daily Weather History Graph

Search for Another Location

Airport or City:

Trip Planner

Search our weather history database for the weather conditions in past years. The results will help you decide how hot, cold, wet, or windy it might be!

Date:

Astronomy

May. 11, 2013 Rise Set
Actual Time 5:32 AM PDT 8:40 PM PDT
Civil Twilight 4:54 AM PDT 9:18 PM PDT
Nautical Twilight 4:05 AM PDT 10:07 PM PDT
Astronomical Twilight 3:04 AM PDT 11:09 PM PDT
Moon 6:41 AM PDT (5/11) 10:28 PM PDT (5/11)
Length of Visible Light 16h 23m
Length of Day
15h 08m
Waxing Crescent, 3% of the Moon is Illuminated
May 11
Waxing Crescent
May 17
First Quarter
May 24
Full
May 31
Last Quarter
Jun 8
New

Hourly Weather History & Observations

Time (PDT) Temp. Dew Point Humidity Pressure Visibility Wind Dir Wind Speed Gust Speed Precip Events Conditions
12:00 AM 57.2 °F 53.6 °F 88% 30.15 in 15.0 mi Calm Calm - N/A   Scattered Clouds
1:00 AM 55.4 °F 51.8 °F 88% 30.17 in 15.0 mi North 3.5 mph - N/A   Partly Cloudy
2:00 AM 53.6 °F 51.8 °F 94% 30.17 in 15.0 mi Calm Calm - N/A   Scattered Clouds
3:00 AM 53.6 °F 51.8 °F 94% 30.17 in 15.0 mi Calm Calm - N/A   Mostly Cloudy
4:00 AM 55.4 °F 53.6 °F 94% 30.15 in 15.0 mi ENE 2.3 mph - N/A   Mostly Cloudy
5:00 AM 57 °F 52 °F 77% 30.14 in 25 mi North 3.5 mph - -   Mostly Cloudy
5:00 AM 57.2 °F 51.8 °F 82% 30.14 in 25.0 mi North 3.5 mph - N/A   Mostly Cloudy
6:00 AM 53.6 °F 51.8 °F 94% 30.14 in 30.0 mi South 3.5 mph - N/A   Mostly Cloudy
7:00 AM 55.4 °F 53.6 °F 94% 30.15 in 30.0 mi SW 5.8 mph - N/A   Mostly Cloudy
8:00 AM 55.4 °F 51.8 °F 88% 30.16 in 30.0 mi SSW 4.6 mph - N/A   Overcast
9:00 AM 57.2 °F 51.8 °F 82% 30.17 in 30.0 mi Calm Calm - N/A   Overcast
10:00 AM 60.8 °F 53.6 °F 77% 30.15 in 30.0 mi ENE 3.5 mph - N/A   Mostly Cloudy
11:00 AM 66 °F 54 °F 57% 30.14 in 28 mi North 3.5 mph - -   Partly Cloudy
11:00 AM 66.2 °F 53.6 °F 64% 30.14 in 30.0 mi North 2.3 mph - N/A   Mostly Cloudy
12:00 PM 69.8 °F 55.4 °F 60% 30.12 in 30.0 mi Variable 2.3 mph - N/A   Mostly Cloudy
1:00 PM 71.6 °F 55.4 °F 57% 30.10 in 30.0 mi WNW 3.5 mph - N/A   Mostly Cloudy
2:00 PM 73.4 °F 55.4 °F 53% 30.08 in 30.0 mi Variable 2.3 mph - N/A   Mostly Cloudy
3:00 PM 75.2 °F 57.2 °F 53% 30.06 in 30.0 mi WSW 4.6 mph - N/A   Mostly Cloudy
4:00 PM 77.0 °F 57.2 °F 50% 30.04 in 30.0 mi NNW 3.5 mph - N/A   Mostly Cloudy
5:00 PM 75 °F 58 °F 44% 30.03 in 28 mi SW 9.2 mph - -   Mostly Cloudy
5:00 PM 75.2 °F 57.2 °F 53% 30.03 in 30.0 mi SW 8.1 mph - N/A   Mostly Cloudy
6:00 PM 71.6 °F 55.4 °F 57% 30.04 in 30.0 mi SW 9.2 mph - N/A   Mostly Cloudy
7:00 PM 69.8 °F 50.0 °F 49% 30.00 in 30.0 mi Calm Calm - N/A   Mostly Cloudy
8:00 PM 66.2 °F 53.6 °F 64% 29.99 in 30.0 mi SSW 4.6 mph - N/A   Overcast
9:00 PM 64.4 °F 51.8 °F 64% 30.01 in 30.0 mi SW 10.4 mph - N/A   Overcast
10:00 PM 62.6 °F 51.8 °F 68% 30.06 in 15.0 mi WSW 5.8 mph - N/A Rain Light Rain
11:00 PM 58 °F 55 °F 86% 30.05 in 10 mi ESE 4.6 mph - - Rain Light Rain
11:00 PM 59.0 °F 55.4 °F 88% 30.04 in 10.0 mi ESE 4.6 mph - N/A Rain Light Rain